www.pogodaiklimat.ru

Погода и климат >> Архив погоды >> Австралия >> Южная Австралия >> Камминс


ПОГОДА в Камминсе

  • Прогноз погоды в Камминсе
  • Монитор погоды в Камминсе

АРХИВ ПОГОДЫ в Камминсе

Время (UTC), дата Ветер
(напр.,м/с)
 
Видим.   Явления Облачность Т
(С)
Тd
(С)
f
(%)
Тe
(С)
Тes
(С)
Комфортность P
(гПа)
Po
(гПа)
Тmin
(С)
Tmax
(С)
R
(мм)
R24
(мм)
S
(см)
10 10.07 З 8 н/о н/о +12.7 +12.2 97 +10 +10 1012.7 1005.4
11 10.07 З 8 н/о {туман} н/о +12.5 +8.8 78 +9 +9 1013.5 1006.2 2
13 10.07 З 5 н/о н/о +11.2 +10.0 92 +8 +8 1013.9 1006.6
14 10.07 З 8 н/о н/о +11.9 +8.7 81 +9 +9 1014.2 1006.9 +16.4
16 10.07 З 7 н/о н/о +12.2 +9.8 85 +9 +9 1014.1 1006.8
17 10.07 З 8 н/о н/о +11.9 +8.9 82 +9 +9 1014.3 1007.0
19 10.07 З 7 н/о н/о +12.0 +10.2 89 +9 +9 1014.6 1007.3
20 10.07 З 7 н/о в посл. час дождь {туман} н/о +12.3 +12.3 100 +9 +9 1015.1 1007.8
22 10.07 З 9 н/о н/о +12.4 +12.4 100 +9 +9 1016.5 1009.1
23 10.07 З 8 н/о {туман} н/о +12.9 +12.9 100 +10 +10 1017.0 1009.6 4
01 11.07 З 9 н/о н/о +14.7 +14.4 98 +12 +12 1018.1 1010.7
02 11.07 З 9 н/о {туман} н/о +15.1 +13.5 90 +13 +13 1017.9 1010.5 +11.1
04 11.07 З 9 н/о н/о +14.6 +14.0 96 +12 +12 1017.3 1009.9
05 11.07 З 9 н/о {туман} н/о +14.2 +13.1 93 +12 +12 1017.1 1009.7 0.6
07 11.07 З 6 н/о н/о +13.9 +13.4 97 +12 +12 1017.4 1010.0
08 11.07 З 8 н/о н/о +13.8 +11.0 83 +11 +11 1017.3 1009.9
10 11.07 СЗ 8 н/о н/о +13.3 +13.3 100 +10 +10 1018.1 1010.7
11 11.07 З 6 н/о {туман} н/о +13.6 +11.7 88 +11 +11 1018.4 1011.0 0.6
13 11.07 З 6 н/о н/о +12.5 +12.5 100 +10 +10 1018.3 1010.9
14 11.07 З 7 н/о {туман} н/о +13.0 +13.0 100 +10 +10 1017.9 1010.5 +15.6
16 11.07 З 8 н/о н/о +12.8 +12.5 98 +10 +10 1017.0 1009.6
17 11.07 З 7 н/о {туман} н/о +12.7 +11.4 92 +10 +10 1016.6 1009.2 1
19 11.07 З 6 н/о н/о +12.7 +10.6 87 +10 +10 1016.0 1008.7
20 11.07 З 6 н/о {туман} н/о +12.6 +12.0 96 +10 +10 1015.9 1008.6
22 11.07 З 6 н/о н/о +12.4 +12.4 100 +10 +10 1016.1 1008.8
23 11.07 З 6 н/о {туман} н/о +12.8 +12.8 100 +10 +10 1016.7 1009.3 3
01 12.07 З 9 н/о н/о +12.4 +12.4 100 +9 +9 1017.4 1010.0
02 12.07 З 11 н/о в посл. час дождь {туман} н/о +13.4 +12.9 97 +10 +10 1017.0 1009.6 +11.8
04 12.07 З 11 н/о н/о +13.2 +13.2 100 +10 +10 1016.4 1009.0
05 12.07 З 12 н/о в посл. час дождь {туман} н/о +11.4 +11.4 100 +7 +7 1016.8 1009.4 2
07 12.07 ЮЗ 8 н/о н/о +10.9 +10.3 96 +7 +7 1017.8 1010.4
08 12.07 ЮЗ 8 н/о в посл. час дождь {туман} н/о +10.4 +9.6 95 +6 +6 1018.1 1010.7
10 12.07 ЮЗ 7 н/о н/о +10.5 +6.8 78 +7 +7 1019.8 1012.4
11 12.07 ЮЗ 7 н/о {туман} н/о +10.3 +5.7 73 +7 +7 1020.8 1013.4 1
13 12.07 ЮЗ 11 н/о н/о +8.1 +4.9 80 +3 +3 1022.4 1015.0
14 12.07 ЮЗ 7 н/о в посл. час дождь {туман} н/о +7.9 +6.2 89 +3 +3 1022.8 1015.4 +14.8
16 12.07 ЮЗ 6 н/о н/о +7.7 +6.5 92 +3 +3 1023.5 1016.1
17 12.07 ЮЗ 5 н/о {туман} н/о +8.0 +6.6 91 +4 +4 1023.9 1016.5 0.6
19 12.07 З 5 н/о н/о +6.9 +6.8 99 +3 +3 1024.9 1017.5
20 12.07 ЮЗ 4 н/о в посл. час дождь {туман} н/о +7.3 +6.6 95 +4 +4 1025.2 1017.8
22 12.07 ЮЗ 3 н/о н/о +6.9 +5.8 93 +4 +4 1027.1 1019.7
23 12.07 С 1 н/о {туман} н/о +6.8 +6.7 99 +7 +7 1028.3 1020.9 4
01 13.07 ЮЗ 5 н/о н/о +11.9 +7.8 76 +9 +9 1029.7 1022.3
02 13.07 ЮЗ 6 н/о н/о +11.3 +9.6 89 +8 +8 1030.1 1022.7 +5.6
04 13.07 ЮЗ 8 н/о н/о +12.8 +6.2 64 +10 +10 1029.5 1022.1
05 13.07 ЮЗ 8 н/о н/о +12.5 +6.1 65 +10 +10 1029.7 1022.3
07 13.07 Ю 5 н/о н/о +11.6 +7.3 75 +9 +9 1031.2 1023.7
08 13.07 штиль 0 н/о н/о +9.8 +8.9 94 +9 +9 1031.7 1024.2
10 13.07 З 2 н/о н/о +8.2 +8.2 100 +6 +6 1032.5 1025.0
11 13.07 штиль 0 н/о н/о +6.4 +6.4 100 +5 +5 1033.1 1025.6
13 13.07 ЮВ 1 н/о н/о +5.7 +5.7 100 +5 +5 1032.9 1025.4
14 13.07 СВ 3 н/о н/о +6.3 +6.3 100 +3 +3 1032.5 1025.0 +13.9
17 13.07 З 2 н/о н/о +8.1 +8.1 100 +6 +6 1031.7 1024.2
19 13.07 З 3 н/о н/о +9.2 +9.2 100 +7 +7 1031.5 1024.0
20 13.07 З 3 н/о н/о +8.9 +8.9 100 +6 +6 1031.5 1024.0
22 13.07 С 2 н/о н/о +7.9 +7.9 100 +6 +6 1032.8 1025.3
23 13.07 штиль 0 н/о в посл. час дождь {туман} н/о +8.9 +8.9 100 +8 +8 1033.2 1025.7 0.4
01 14.07 З 5 н/о н/о +12.3 +12.3 100 +10 +10 1033.5 1026.0
02 14.07 З 7 н/о н/о +13.0 +10.4 84 +10 +10 1033.3 1025.8 +4.8
04 14.07 З 7 н/о н/о +13.3 +9.9 80 +11 +11 1032.0 1024.5
05 14.07 З 9 н/о н/о +13.5 +8.8 73 +11 +11 1031.4 1023.9
07 14.07 З 6 н/о н/о +12.9 +9.9 82 +11 +11 1031.3 1023.8
08 14.07 ЮЗ 7 н/о н/о +12.1 +8.9 81 +9 +9 1031.4 1023.9
10 14.07 ЮЗ 4 н/о н/о +10.9 +10.9 100 +8 +8 1031.9 1024.4
11 14.07 ЮЗ 6 н/о {туман} н/о +11.0 +8.9 87 +8 +8 1032.1 1024.6 0.2
13 14.07 З 3 н/о н/о +10.9 +9.3 90 +9 +9 1031.7 1024.2
14 14.07 З 5 н/о н/о +10.9 +7.4 79 +8 +8 1031.6 1024.1 +14.2
16 14.07 З 5 н/о н/о +11.1 +9.7 91 +8 +8 1031.3 1023.8
17 14.07 ЮЗ 4 н/о н/о +11.3 +9.0 86 +9 +9 1031.2 1023.7
19 14.07 ЮЗ 3 н/о н/о +9.1 +8.8 98 +6 +6 1029.9 1022.5
20 14.07 ЮЗ 5 н/о н/о +10.4 +10.4 100 +7 +7 1030.6 1023.1
22 14.07 ЮЗ 4 н/о н/о +10.2 +10.2 100 +8 +8 1031.9 1024.4
23 14.07 З 3 н/о н/о +10.2 +10.2 100 +8 +8 1032.3 1024.8 0.2
01 15.07 З 4 н/о н/о +12.3 +10.2 87 +10 +10 1033.6 1026.1
02 15.07 ЮЗ 5 н/о н/о +12.3 +11.7 96 +10 +10 1033.6 1026.1 +8.9
04 15.07 ЮЗ 5 н/о н/о +13.2 +10.4 83 +11 +11 1031.6 1024.1
05 15.07 З 5 н/о н/о +13.4 +11.1 86 +11 +11 1031.1 1023.6
07 15.07 З 4 н/о н/о +12.6 +11.0 90 +11 +11 1031.1 1023.6
08 15.07 ЮЗ 3 н/о н/о +12.3 +11.7 96 +11 +11 1031.3 1023.8
10 15.07 ЮЗ 2 н/о н/о +10.0 +10.0 100 +9 +9 1031.7 1024.2
11 15.07 штиль 0 н/о н/о +10.3 +10.3 100 +9 +9 1031.7 1024.2
13 15.07 штиль 0 н/о н/о +10.7 +10.7 100 +10 +10 1031.7 1024.2
14 15.07 штиль 0 н/о в посл. час дождь {туман} н/о +11.0 +11.0 100 +10 +10 1031.2 1023.7 +13.9
16 15.07 штиль 0 н/о н/о +10.5 +10.5 100 +10 +10 1030.8 1023.3
17 15.07 штиль 0 н/о {туман} н/о +9.8 +9.8 100 +9 +9 1030.6 1023.1 0.8
19 15.07 штиль 0 н/о н/о +8.1 +8.1 100 +7 +7 1029.9 1022.5
20 15.07 штиль 0 н/о {туман} н/о +8.4 +8.4 100 +7 +7 1029.8 1022.4
22 15.07 штиль 0 н/о н/о +9.1 +9.1 100 +8 +8 1030.7 1023.2
23 15.07 штиль 0 н/о {туман} н/о +9.6 +9.6 100 +9 +9 1030.6 1023.1 1
01 16.07 С 2 н/о н/о +11.5 +11.5 100 +11 +11 1031.1 1023.6
02 16.07 СЗ 3 н/о н/о +12.2 +12.2 100 +11 +11 1030.8 1023.3 +7.9
04 16.07 З 3 н/о н/о +13.9 +13.9 100 +13 +13 1028.7 1021.3
05 16.07 З 4 н/о н/о +13.6 +13.6 100 +12 +12 1028.2 1020.8
07 16.07 З 5 н/о н/о +13.4 +13.4 100 +11 +11 1028.0 1020.6
08 16.07 З 4 н/о в посл. час дождь {туман} н/о +12.7 +12.7 100 +11 +11 1027.9 1020.5
10 16.07 ЮЗ 4 н/о н/о +11.6 +11.6 100 +9 +9 1028.3 1020.9
11 16.07 З 3 н/о {туман} н/о +11.0 +11.0 100 +9 +9 1028.5 1021.1 0.2
13 16.07 З 4 н/о н/о +10.5 +10.5 100 +8 +8 1027.7 1020.3
14 16.07 З 5 н/о н/о +10.8 +10.5 98 +8 +8 1027.7 1020.3 +15.4
16 16.07 З 5 н/о н/о +10.9 +9.2 89 +8 +8 1026.4 1019.0
17 16.07 З 3 н/о н/о +10.5 +10.5 100 +8 +8 1025.8 1018.4
19 16.07 З 4 н/о н/о +10.7 +10.4 98 +8 +8 1024.8 1017.4
20 16.07 З 4 н/о н/о +10.6 +10.4 99 +8 +8 1024.8 1017.4
22 16.07 З 3 н/о н/о +10.6 +9.4 92 +8 +8 1025.3 1017.9
23 16.07 З 4 н/о н/о +11.3 +9.4 88 +9 +9 1025.3 1017.9 0.2
01 17.07 З 7 н/о н/о +12.0 +9.6 85 +9 +9 1025.7 1018.3
04 17.07 З 8 н/о н/о +12.3 +12.3 100 +9 +9 1023.6 1016.2
05 17.07 З 6 н/о в посл. час дождь {туман} н/о +13.1 +13.1 100 +11 +11 1023.1 1015.7 2
08 17.07 З 4 н/о н/о +12.5 +10.4 87 +11 +11 1023.1 1015.7

 

Местоположение метеостанции Камминс (Южная Австралия, Австралия): широта -34.25 долгота 135.72 высота над уровнем моря 58 м.

В архиве по умолчанию представлена погода в Камминсе за последнюю неделю. Архивные данные за месяц целиком и за предыдущие месяцы, начиная с января 2011 года, Вы можете получить, выбрав интересующий диапазон дат из раскрывающегося списка и нажав кнопку "Ввод!".


*Определитесь, кто Вы:
робот инопланетянин человек

Внимание! Время в таблицах - всемирное. Для получения местного времени необходимо прибавить поправку, которая равна 9.5 ч.

Смотрите также архив погоды в соседних городах и на ближайших метеорологических станциях:

Погода в Колте (Южная Австралия, Австралия) (35 км)
Погода в Порт-Линкольне (Южная Австралия, Австралия) (42 км)
Погода в Кливе аэропорту (Южная Австралия, Австралия) (93 км)
Погода на Острове Нептун (Южная Австралия, Австралия) (125 км)
Погода в Уудинне (Южная Австралия, Австралия) (136 км)
Погода в Стенхаус Бэй (Южная Австралия, Австралия) (159 км)
Погода в Миннипа Пирса (Южная Австралия, Австралия) (164 км)
Погода в Мунте (Южная Австралия, Австралия) (169 км)
Погода в Минлатоне (Южная Австралия, Австралия) (174 км)
Погода в Кадине (Южная Австралия, Австралия) (182 км)

Пояснения к столбцам:

Ветер - указаны скорость ветра в м/с - средняя за 10 мин, порывы в срок и между сроками (в фигурных скобках) и направление, откуда дует ветер: С - северный, СВ - северо-восточный, В - восточный, ЮВ - юго-восточный, Ю - южный, ЮЗ - юго-западный, З - западный, СЗ - северо-западный.
Видимость - горизонтальная дальность видимости в метрах или километрах. При видимости от 1 до 10 км при отсутствии осадков обычно наблюдается дымка, при ухудшении видимости до 1 км и менее - туман. В сухую погоду видимость может ухудшаться дымом, пылью или мглою.
Явления - указаны атмосферные явления, наблюдавшиеся в срок или в последний час перед сроком; фигурными скобками обозначены явления, наблюдавшиеся между сроками (за 1-3 часа до срока); квадратными скобками обозначены град или гололедные отложения с указанием их диаметра в мм.
Облачность - указаны через наклонную черту общая и нижняя облачность в баллах и высота нижней границы облаков в метрах; квадратными скобками обозначены формы облаков: Ci - перистые, Cs - перисто-слоистые, Cc - перисто-кучевые, Ac - высококучевые, As - высокослоистые, Sc - слоисто-кучевые, Ns - слоисто-дождевые, Cu - кучевые, Cb - кучево-дождевые. Подробнее классификацию облаков см. в Атласе облаков (PDF).
T - Температура воздуха - температура, измеренная на высоте 2 м над землей.
Td - Температура точки росы - температура, при понижении до которой содержащийся в воздухе водяной пар достигнет насыщения.
f - Относительная влажность воздуха - влажноcть воздуха, измеренная на высоте 2 м над землей.
Te - Эффективная температура - температура, которую ощущает одетый по сезону человек в тени. Характеристика душности погоды. При расчете учитывается влияние влажности воздуха и скорости ветра на теплоощущения человека.
Tes - Эффективная температура на солнце - температура, которую ощущает человек, с поправкой на солнечный нагрев. Характеристика знойности погоды. Зависит от высоты солнца над горизонтом, облачности и скорости ветра. Ночью, в пасмурную погоду, а также при ветре 12 м/с и более поправка равна нулю.
P - Атмосферное давление - приведенное к уровню моря атмосферное давление.
Po - Атмосферное давление - измеренное на уровне метеостанции атмосферное давление.
Tmin - Минимальная температура - минимум температуры воздуха на высоте 2 м над землей.
Tmax - Максимальная температура - максимум температуры воздуха на высоте 2 м над землей.
R - Количество осадков - Количество выпавших осадков за период времени, мм. При наведении курсора мыши на число - период времени, за который выпало указанное количество осадков.
R24 - Количество осадков - Количество выпавших осадков за 24 часа, мм.
S - Снежный покров - Высота снежного покрова, см. При наведении курсора мыши на число - состояние снежного покрова и степень покрытия местности в баллах.